Overview Statistics Trail Chart Weather Telemetry Raw packets
 

This is the latest recevied weather packets stored in our database for station/object OK1TBM-13. If no packets are shown the sender has not sent any weather packets the latest 10 day(s).

<< 26 27 28 29 30 31 32 >>
Time Temp. Humidity Pressure Rain* Wind** Luminosity Snow
1788423901 20.56° C 70% 1019 hPa 0 mm - 495 W/m² -
1788423601 20.56° C 71% 1019 hPa 0 mm - 481 W/m² -
1788423302 20.56° C 74% 1019 hPa 0 mm - 473 W/m² -
1788423007 20.56° C 71% 1019 hPa 0 mm - 426 W/m² -
1788422700 20.56° C 73% 1019 hPa 0 mm - 448 W/m² -
1788422400 19.44° C 77% 1019 hPa 0 mm - 459 W/m² -
1788422101 18.89° C 78% 1019 hPa 0 mm - 464 W/m² -
1788421801 18.33° C 79% 1019 hPa 0 mm - 333 W/m² -
1788421501 18.89° C 77% 1019 hPa 0 mm - 445 W/m² -
1788421201 18.33° C 78% 1019 hPa 0 mm - 392 W/m² -
1788420900 18.89° C 81% 1019 hPa 0 mm - 462 W/m² -
1788420601 18.33° C 81% 1019 hPa 0 mm - 443 W/m² -
1788420301 17.78° C 81% 1019 hPa 0 mm - 356 W/m² -
1788420001 17.78° C 84% 1019 hPa 0 mm - 331 W/m² -
1788419707 17.78° C 83% 1019 hPa 0 mm - 313 W/m² -
1788419101 17.22° C 83% 1019 hPa 0 mm - 305 W/m² -
1788418801 17.22° C 84% 1019 hPa 0 mm - 303 W/m² -
1788418501 17.22° C 84% 1019 hPa 0 mm - 229 W/m² -
1788418200 17.78° C 82% 1019 hPa 0 mm - 212 W/m² -
1788417904 17.22° C 82% 1019 hPa 0 mm - 307 W/m² -
1788417601 17.22° C 83% 1019 hPa 0 mm - 267 W/m² -
1788417301 16.67° C 85% 1018.3 hPa 0 mm - 231 W/m² -
1788417001 16.67° C 86% 1018.3 hPa 0 mm - 203 W/m² -
1788416701 17.22° C 85% 1018.3 hPa 0 mm - 186 W/m² -
1788416402 16.67° C 86% 1018.3 hPa 0 mm - 176 W/m² -

* Rain latest hour (hover to see other rain measurements)
** Current wind speed in m/s (hover to see current wind gust speed)